Weather History for Oelwein, IA

Change the Weather History Date:

Thursday, February 14, 2013

  Actual Average Record
Temperature  
Mean Temperature 30 °F -  
Max Temperature 37 °F 30 °F 59 °F (2006)
Min Temperature 23 °F 12 °F -14 °F (1986)
Degree Days  
Heating Degree Days 34    
Moisture  
Dew Point 28 °F    
Average Humidity 81    
Maximum Humidity 100    
Minimum Humidity 54    
Precipitation  
Precipitation 0.00 in - - ()
Sea Level Pressure  
Sea Level Pressure 29.83 in    
Wind  
Wind Speed 15 mph (NW)    
Max Wind Speed 25 mph    
Max Gust Speed 39 mph    
Visibility 9 miles    
Events Snow    
Averages and records for this station are not official NWS values.
T = Trace of Precipitation, MM = Missing Value Source: NWS Daily Summary

Daily Weather History Graph

Daily Weather History Graph

Search for Another Location

Airport:

Trip Planner

Search our weather history database for the weather conditions in past years. The results will help you decide how hot, cold, wet, or windy it might be!

Date:

Astronomy

Feb. 14, 2013 Rise Set
Actual Time 7:05 AM CST 5:38 PM CST
Civil Twilight 6:36 AM CST 6:07 PM CST
Nautical Twilight 6:03 AM CST 6:40 PM CST
Astronomical Twilight 5:31 AM CST 7:13 PM CST
Moon 9:00 AM CST (2/14) 10:50 PM CST (2/14)
Length of Visible Light 11h 30m
Length of Day
10h 32m
Waxing Crescent, 22% of the Moon is Illuminated
Feb 14
Waxing Crescent
Feb 17
First Quarter
Feb 25
Full
Mar 4
Last Quarter
Mar 11
New

Hourly Weather History & Observations

Time (CST) Temp. Windchill Dew Point Humidity Pressure Visibility Wind Dir Wind Speed Gust Speed Precip Events Conditions
12:15 AM 35.6 °F 29.2 °F 32.0 °F 87% 29.60 in 10.0 mi WSW 8.1 mph - N/A   Clear
12:35 AM 35.6 °F 27.1 °F 32.0 °F 87% 29.60 in 10.0 mi West 12.7 mph - N/A   Clear
12:55 AM 35.6 °F 27.1 °F 32.0 °F 87% 29.60 in 10.0 mi West 12.7 mph - N/A   Clear
1:15 AM 35.6 °F 26.6 °F 32.0 °F 87% 29.60 in 10.0 mi West 13.8 mph - N/A   Clear
1:35 AM 35.6 °F 27.1 °F 32.0 °F 87% 29.60 in 10.0 mi West 12.7 mph - N/A   Clear
1:55 AM 35.6 °F 27.5 °F 32.0 °F 87% 29.61 in 10.0 mi West 11.5 mph - N/A   Clear
2:15 AM 35.6 °F 27.5 °F 32.0 °F 87% 29.61 in 10.0 mi West 11.5 mph - N/A   Clear
2:35 AM 35.6 °F 27.1 °F 32.0 °F 87% 29.61 in 10.0 mi West 12.7 mph - N/A   Clear
2:55 AM 35.6 °F 27.1 °F 32.0 °F 87% 29.61 in 10.0 mi West 12.7 mph - N/A   Clear
3:15 AM 35.6 °F 26.6 °F 32.0 °F 87% 29.60 in 10.0 mi West 13.8 mph - N/A   Clear
3:35 AM 35.6 °F 25.5 °F 32.0 °F 87% 29.60 in 10.0 mi West 17.3 mph 21.9 mph N/A   Clear
4:15 AM 35.6 °F 24.8 °F 32.0 °F 87% 29.62 in 10.0 mi West 19.6 mph 28.8 mph N/A   Scattered Clouds
4:35 AM 33.8 °F 22.2 °F 30.2 °F 87% 29.62 in 10.0 mi West 20.7 mph 28.8 mph N/A   Clear
4:55 AM 33.8 °F 21.9 °F 30.2 °F 87% 29.64 in 10.0 mi WNW 21.9 mph 29.9 mph N/A   Clear
5:15 AM 33.8 °F 22.2 °F 32.0 °F 93% 29.64 in 10.0 mi West 20.7 mph 25.3 mph N/A   Scattered Clouds
5:35 AM 33.8 °F 21.6 °F 32.0 °F 93% 29.65 in 10.0 mi WNW 23.0 mph 28.8 mph N/A   Scattered Clouds
5:55 AM 33.8 °F 22.5 °F 32.0 °F 93% 29.66 in 10.0 mi West 19.6 mph 29.9 mph N/A   Scattered Clouds
6:15 AM 33.8 °F 21.9 °F 32.0 °F 93% 29.67 in 10.0 mi WNW 21.9 mph 27.6 mph N/A   Scattered Clouds
6:35 AM 33.8 °F 21.0 °F 32.0 °F 93% 29.68 in 10.0 mi WNW 25.3 mph 33.4 mph N/A   Clear
6:55 AM 33.8 °F 21.0 °F 30.2 °F 87% 29.70 in 10.0 mi NW 25.3 mph 33.4 mph N/A   Clear
7:15 AM 33.8 °F 21.0 °F 30.2 °F 87% 29.72 in 10.0 mi NW 25.3 mph 39.1 mph N/A   Clear
7:35 AM 33.8 °F 22.2 °F 30.2 °F 87% 29.73 in 7.0 mi NW 20.7 mph 28.8 mph N/A   Clear
7:55 AM 33.8 °F 23.2 °F 30.2 °F 87% 29.74 in 10.0 mi NW 17.3 mph 28.8 mph N/A   Clear
8:15 AM 33.8 °F 22.8 °F 30.2 °F 87% 29.76 in 10.0 mi NNW 18.4 mph 26.5 mph N/A   Clear
8:35 AM 33.8 °F 23.9 °F 30.2 °F 87% 29.77 in 10.0 mi NW 15.0 mph 20.7 mph N/A   Clear
8:55 AM 33.8 °F 23.5 °F 30.2 °F 87% 29.78 in 10.0 mi NW 16.1 mph 21.9 mph N/A   Clear
9:15 AM 33.8 °F 23.5 °F 30.2 °F 87% 29.79 in 10.0 mi NNW 16.1 mph 26.5 mph N/A   Clear
9:35 AM 33.8 °F 23.5 °F 28.4 °F 81% 29.79 in 10.0 mi NW 16.1 mph 24.2 mph N/A   Clear
9:55 AM 33.8 °F 22.5 °F 28.4 °F 81% 29.81 in 10.0 mi NW 19.6 mph 27.6 mph N/A   Clear
10:15 AM 35.6 °F 26.2 °F 30.2 °F 81% 29.82 in 10.0 mi NNW 15.0 mph 20.7 mph N/A   Clear
10:35 AM 35.6 °F 27.1 °F 28.4 °F 75% 29.83 in 10.0 mi NW 12.7 mph 18.4 mph N/A   Clear
10:55 AM 35.6 °F 25.9 °F 30.2 °F 81% 29.84 in 10.0 mi WNW 16.1 mph - N/A   Clear
11:15 AM 35.6 °F 26.2 °F 28.4 °F 75% 29.85 in 10.0 mi NW 15.0 mph 19.6 mph N/A   Clear
11:35 AM 35.6 °F 27.1 °F 28.4 °F 75% 29.85 in 10.0 mi NW 12.7 mph 19.6 mph N/A   Clear
11:55 AM 35.6 °F 25.9 °F 30.2 °F 81% 29.85 in 10.0 mi WNW 16.1 mph 21.9 mph N/A   Clear
12:15 PM 37.4 °F 27.5 °F 28.4 °F 70% 29.85 in 10.0 mi NW 18.4 mph 21.9 mph N/A   Clear
12:35 PM 37.4 °F 27.5 °F 30.2 °F 75% 29.85 in 10.0 mi NW 18.4 mph - N/A   Clear
12:55 PM 35.6 °F 27.1 °F 28.4 °F 75% 29.86 in 10.0 mi NW 12.7 mph - N/A   Clear
1:15 PM 37.4 °F 29.3 °F 28.4 °F 70% 29.86 in 10.0 mi NW 12.7 mph - N/A   Clear
1:35 PM 35.6 °F 26.6 °F 26.6 °F 70% 29.86 in 10.0 mi NW 13.8 mph - N/A   Clear
1:55 PM 35.6 °F 29.2 °F 28.4 °F 75% 29.86 in 10.0 mi NW 8.1 mph 18.4 mph N/A   Clear
2:15 PM 35.6 °F 26.6 °F 28.4 °F 75% 29.87 in 10.0 mi WNW 13.8 mph - N/A   Clear
2:35 PM 35.6 °F 28.0 °F 28.4 °F 75% 29.88 in 10.0 mi WNW 10.4 mph 19.6 mph N/A   Scattered Clouds
2:55 PM 35.6 °F 27.1 °F 28.4 °F 75% 29.88 in 10.0 mi WNW 12.7 mph - N/A   Scattered Clouds
3:15 PM 35.6 °F 27.5 °F 30.2 °F 81% 29.89 in 10.0 mi West 11.5 mph - N/A   Clear
3:35 PM 33.8 °F 24.3 °F 30.2 °F 87% 29.91 in 3.0 mi West 13.8 mph 20.7 mph N/A Snow Light Snow
3:55 PM 32.0 °F 22.5 °F 32.0 °F 100% 29.92 in 1.8 mi West 12.7 mph - N/A Snow Light Snow
4:15 PM 32.0 °F 22.5 °F 32.0 °F 100% 29.92 in 1.5 mi West 12.7 mph - N/A Snow Light Snow
4:35 PM 32.0 °F 23.0 °F 32.0 °F 100% 29.93 in 2.5 mi WNW 11.5 mph - N/A Snow Light Snow
4:55 PM 32.0 °F 22.5 °F 32.0 °F 100% 29.93 in 1.5 mi WNW 12.7 mph - N/A Snow Light Snow
5:15 PM 32.0 °F 24.2 °F 32.0 °F 100% 29.94 in 2.5 mi WNW 9.2 mph - N/A Snow Light Snow
5:35 PM 32.0 °F 23.6 °F 32.0 °F 100% 29.94 in 7.0 mi WNW 10.4 mph - N/A   Scattered Clouds
5:55 PM 32.0 °F 23.6 °F 32.0 °F 100% 29.95 in 7.0 mi WNW 10.4 mph - N/A   Scattered Clouds
6:15 PM 32.0 °F 23.6 °F 28.4 °F 87% 29.96 in 10.0 mi NW 10.4 mph - N/A   Clear
6:35 PM 32.0 °F 23.0 °F 28.4 °F 87% 29.97 in 10.0 mi NW 11.5 mph 18.4 mph N/A   Clear
6:55 PM 32.0 °F 23.0 °F 26.6 °F 80% 29.99 in 10.0 mi NW 11.5 mph - N/A   Clear
7:15 PM 32.0 °F 21.6 °F 26.6 °F 80% 29.99 in 10.0 mi NW 15.0 mph - N/A   Clear
7:35 PM 32.0 °F 21.2 °F 26.6 °F 80% 29.99 in 10.0 mi NW 16.1 mph - N/A   Clear
7:55 PM 32.0 °F 20.8 °F 24.8 °F 75% 30.00 in 10.0 mi NW 17.3 mph 21.9 mph N/A   Clear
8:15 PM 32.0 °F 20.1 °F 26.6 °F 80% 30.01 in 10.0 mi NW 19.6 mph 25.3 mph N/A   Clear
8:35 PM 30.2 °F 16.8 °F 24.8 °F 80% 30.02 in 10.0 mi NW 23.0 mph 27.6 mph N/A   Scattered Clouds
8:55 PM 30.2 °F 18.1 °F 23.0 °F 75% 30.03 in 10.0 mi NNW 18.4 mph 24.2 mph N/A   Clear
9:15 PM 28.4 °F 16.2 °F 21.2 °F 74% 30.04 in 10.0 mi NNW 17.3 mph 28.8 mph N/A   Clear
9:35 PM 28.4 °F 13.8 °F 14.0 °F 55% 30.05 in 10.0 mi NNW 25.3 mph 31.1 mph N/A   Clear
9:55 PM 26.6 °F 12.7 °F 14.0 °F 59% 30.05 in 10.0 mi NNW 20.7 mph 28.8 mph N/A   Clear
10:15 PM 26.6 °F 12.4 °F 12.2 °F 55% 30.06 in 10.0 mi NNW 21.9 mph 29.9 mph N/A   Clear
10:35 PM 26.6 °F 14.3 °F 12.2 °F 55% 30.07 in 10.0 mi NNW 16.1 mph 25.3 mph N/A   Clear
10:55 PM 26.6 °F 13.4 °F 12.2 °F 55% 30.07 in 10.0 mi NNW 18.4 mph 25.3 mph N/A   Clear
11:15 PM 24.8 °F 10.7 °F 10.4 °F 54% 30.08 in 10.0 mi NNW 19.6 mph 28.8 mph N/A   Clear
11:35 PM 24.8 °F 9.6 °F 10.4 °F 54% 30.09 in 10.0 mi North 23.0 mph 27.6 mph N/A   Clear
11:55 PM 23.0 °F 8.7 °F 12.2 °F 63% 30.10 in 10.0 mi North 18.4 mph 26.5 mph N/A   Clear